VE6CWS-7 Weather Reports


time (UTC)temp
C
wind
direction
speed
KPH
gust
KPH
rain 1hr
cm
rain 24hr
cm
rain mn
cm
humidity
%
barometer
mb
20260504050139 11 26 11.3 30.6 0.00 0.00 0.00 47 1012.0
20260504044538 12 13 16.1 27.4 0.00 0.00 0.00 44 1012.0
20260504043041 12 360 12.9 29.0 0.00 0.00 0.00 42 1011.4
20260504041536 12 23 16.1 33.8 0.00 0.00 0.00 41 1011.0
20260504040135 12 347 17.7 37.0 0.00 0.00 0.00 39 1010.7
20260504034553 13 17 22.5 37.0 0.00 0.00 0.00 39 1010.4
20260504033051 13 43 14.5 24.1 0.00 0.00 0.00 41 1009.8
20260504031552 13 15 14.5 29.0 0.00 0.00 0.00 40 1009.6
20260504030151 13 20 14.5 29.0 0.00 0.00 0.00 39 1009.1
20260504024548 13 344 16.1 29.0 0.00 0.00 0.00 38 1008.9
20260504023046 13 5 16.1 27.4 0.00 0.00 0.00 37 1008.8
20260504021544 14 12 16.1 37.0 0.00 0.00 0.00 38 1008.7
20260504020145 14 71 16.1 30.6 0.00 0.00 0.00 38 1008.6
20260504014555 15 22 22.5 41.8 0.00 0.00 0.00 36 1008.2
20260504013050 15 41 29.0 48.3 0.00 0.00 0.00 36 1007.8
20260504011543 16 29 27.4 45.1 0.00 0.00 0.00 34 1007.5
20260504010139 16 15 24.1 48.3 0.00 0.00 0.00 33 1007.3
20260504004551 18 46 25.7 38.6 0.00 0.00 0.00 31 1007.1
20260504003038 19 360 20.9 33.8 0.00 0.00 0.00 30 1006.7
20260504001551 19 22 20.9 40.2 0.00 0.00 0.00 28 1006.5
20260504000135 20 333 14.5 35.4 0.00 0.00 0.00 29 1006.3
20260503234533 20 320 17.7 35.4 0.00 0.00 0.00 27 1006.2
20260503233038 20 309 19.3 33.8 0.00 0.00 0.00 26 1006.5
20260503231533 20 321 20.9 35.4 0.00 0.00 0.00 26 1006.5
20260503230131 20 294 24.1 41.8 0.00 0.00 0.00 25 1006.3
20260503224551 20 355 20.9 46.7 0.00 0.00 0.00 26 1006.5
20260503223050 20 319 27.4 46.7 0.00 0.00 0.00 26 1006.5
20260503221549 20 312 27.4 43.5 0.00 0.00 0.00 26 1006.6
20260503220146 21 338 24.1 41.8 0.00 0.00 0.00 26 1006.5
20260503214546 21 286 22.5 43.5 0.00 0.00 0.00 26 1006.5
20260503213045 21 302 27.4 49.9 0.00 0.00 0.00 27 1006.6
20260503211548 21 283 29.0 41.8 0.00 0.00 0.00 25 1006.7
20260503210142 21 304 35.4 51.5 0.00 0.00 0.00 25 1006.7
20260503204545 22 304 20.9 51.5 0.00 0.00 0.00 25 1006.4
20260503203102 22 321 24.1 46.7 0.00 0.00 0.00 26 1006.6
20260503201541 21 298 33.8 56.3 0.00 0.00 0.00 24 1006.9
20260503200139 21 265 29.0 51.5 0.00 0.00 0.00 26 1006.8
20260503194543 21 284 30.6 48.3 0.00 0.00 0.00 25 1007.0
20260503193040 21 288 30.6 45.1 0.00 0.00 0.00 26 1007.3
20260503191543 21 300 30.6 49.9 0.00 0.00 0.00 26 1007.6
20260503190133 21 311 32.2 53.1 0.00 0.00 0.00 26 1007.7
20260503184657 21 284 33.8 48.3 0.00 0.00 0.00 26 1007.8
20260503183055 20 267 32.2 54.7 0.00 0.00 0.00 27 1008.0
20260503181559 20 307 32.2 46.7 0.00 0.00 0.00 27 1008.0
20260503180150 20 259 27.4 43.5 0.00 0.00 0.00 29 1008.5
20260503174549 20 302 20.9 35.4 0.00 0.00 0.00 30 1008.9
20260503173047 18 284 24.1 43.5 0.00 0.00 0.00 30 1009.2
20260503171545 18 284 25.7 38.6 0.00 0.00 0.00 31 1009.3
20260503170144 18 284 17.7 27.4 0.00 0.00 0.00 32 1009.3
20260503160138 15 294 17.7 27.4 0.00 0.00 0.00 39 1009.9
20260503140150 9 275 14.5 20.9 0.00 0.00 0.00 52 1010.4
20260503130147 6 260 12.9 17.7 0.00 0.00 0.00 61 1010.3
20260503120140 5 255 6.4 14.5 0.00 0.00 0.00 69 1010.3
20260503110136 6 269 12.9 16.1 0.00 0.00 0.00 68 1010.3
20260503100131 6 244 8.0 14.5 0.00 0.00 0.00 79 1010.0
20260503090147 6 230 9.7 14.5 0.00 0.00 0.00 79 1009.9
20260503081555 6 220 9.7 16.1 0.00 0.00 0.00 77 1010.5
20260503080142 7 161 9.7 16.1 0.00 0.00 0.00 75 1010.7
20260503071541 7 211 4.8 12.9 0.00 0.00 0.00 74 1011.0
20260503070137 7 216 9.7 12.9 0.00 0.00 0.00 73 1011.0
20260503060131 8 213 4.8 11.3 0.00 0.00 0.00 70 1011.3
20260503054600 8 214 1.6 11.3 0.00 0.00 0.00 70 1011.3
20260503053045 9 234 0.0 4.8 0.00 0.00 0.00 67 1011.4